Northeast Philadelphia, PA

7:24 AM EDT on October 14, 2019 (GMT -0400)
Northeast Philadelphia

Weather History for KPNE - August, 2019

Change the Weather History Date:

Tuesday, August 20, 2019

  Actual Average Record
Temperature  
Mean Temperature 82 °F -  
Max Temperature 90 °F 83 °F 93 °F (2010)
Min Temperature 73 °F 65 °F 54 °F (1998)
Cooling Degree Days 16    
Growing Degree Days 32 (Base 50)    
Moisture  
Dew Point 70 °F    
Average Humidity 66    
Maximum Humidity 87    
Minimum Humidity 50    
Precipitation  
Precipitation 0.00 in - - ()
Sea Level Pressure  
Sea Level Pressure 30.07 in    
Wind  
Wind Speed 4 mph ()    
Max Wind Speed 10 mph    
Max Gust Speed -    
Visibility 10.0 miles    
Events      
Averages and records for this station are not official NWS values.
T = Trace of Precipitation, MM = Missing Value Source: Averaged Metar Reports

Daily Weather History Graph

Daily Weather History Graph

Search for Another Location

Airport or City:

Astronomy

Aug. 20, 2019 Rise Set
Actual Time 6:16 AM EDT 7:50 PM EDT
Civil Twilight 5:47 AM EDT 8:18 PM EDT
Nautical Twilight 5:12 AM EDT 8:53 PM EDT
Astronomical Twilight 4:36 AM EDT 9:29 PM EDT
Moon 10:37 PM EDT (8/20) 10:51 AM EDT (8/20)
Length of Visible Light 14h 31m
Length of Day
13h 34m
Waning Gibbous, 78% of the Moon is Illuminated
Aug 20
Waning Gibbous
Aug 23
Last Quarter
Aug 30
New
Sep 5
First Quarter
Sep 14
Full

Hourly Weather History & Observations

Time (EDT) Temp. Heat Index Dew Point Humidity Pressure Visibility Wind Dir Wind Speed Gust Speed Precip Events Conditions
12:54 AM 75.9 °F - 71.1 °F 85% 30.04 in 10.0 mi Calm Calm - N/A   Clear
1:54 AM 75.0 °F - 71.1 °F 87% 30.04 in 10.0 mi Calm Calm - N/A   Clear
2:54 AM 75.0 °F - 70.0 °F 84% 30.04 in 10.0 mi North 3.5 mph - N/A   Clear
3:54 AM 75.9 °F - 69.1 °F 79% 30.05 in 10.0 mi WNW 3.5 mph - N/A   Clear
4:54 AM 75.9 °F - 69.1 °F 79% 30.05 in 10.0 mi NNW 3.5 mph - N/A   Clear
5:54 AM 73.9 °F - 68.0 °F 82% 30.08 in 10.0 mi NNW 5.8 mph - N/A   Clear
6:54 AM 75.9 °F - 68.0 °F 76% 30.09 in 10.0 mi Calm Calm - N/A   Clear
7:54 AM 79.0 °F - 69.1 °F 72% 30.11 in 10.0 mi NE 4.6 mph - N/A   Clear
8:54 AM 82.0 °F 84.9 °F 68.0 °F 62% 30.11 in 10.0 mi NE 9.2 mph - N/A   Clear
9:54 AM 84.0 °F 87.0 °F 68.0 °F 58% 30.12 in 10.0 mi ENE 6.9 mph - N/A   Clear
10:54 AM 84.9 °F 88.8 °F 69.1 °F 59% 30.12 in 10.0 mi Variable 5.8 mph - N/A   Clear
11:54 AM 88.0 °F 93.8 °F 71.1 °F 57% 30.12 in 10.0 mi Variable 3.5 mph - N/A   Clear
12:54 PM 88.0 °F 92.9 °F 70.0 °F 55% 30.09 in 10.0 mi SE 3.5 mph - N/A   Clear
1:54 PM 88.0 °F 92.9 °F 70.0 °F 55% 30.09 in 10.0 mi SE 10.4 mph - N/A   Mostly Cloudy
2:54 PM 88.0 °F 92.1 °F 69.1 °F 53% 30.08 in 10.0 mi SSE 4.6 mph - N/A   Scattered Clouds
3:54 PM 90.0 °F 95.4 °F 70.0 °F 52% 30.06 in 10.0 mi SE 6.9 mph - N/A   Partly Cloudy
4:54 PM 90.0 °F 94.5 °F 69.1 °F 50% 30.06 in 10.0 mi Variable 5.8 mph - N/A   Clear
5:54 PM 89.1 °F 93.7 °F 69.1 °F 52% 30.04 in 10.0 mi SE 9.2 mph - N/A   Mostly Cloudy
6:54 PM 87.1 °F 91.3 °F 69.1 °F 55% 30.03 in 10.0 mi SE 8.1 mph - N/A   Clear
7:54 PM 84.9 °F 89.4 °F 70.0 °F 61% 30.02 in 10.0 mi SE 4.6 mph - N/A   Clear
8:54 PM 84.0 °F 87.8 °F 69.1 °F 61% 30.05 in 10.0 mi SSE 6.9 mph - N/A   Clear
9:54 PM 82.9 °F 87.0 °F 70.0 °F 65% 30.05 in 10.0 mi SSE 4.6 mph - N/A   Clear
10:54 PM 81.0 °F 85.2 °F 72.0 °F 74% 30.03 in 10.0 mi SE 4.6 mph - N/A   Clear
11:54 PM 80.1 °F 83.8 °F 72.0 °F 76% 30.04 in 10.0 mi South 3.5 mph - N/A   Clear